SM4IVE-5 Weather Reports


Display with metric or nautical units.
time (UTC)temp
F
wind
direction
speed
MPH
gust
MPH
rain 1hr
in
rain 24hr
in
rain mn
in
humidity
%
barometer
mb
20260504190829 54 305 2.0 9.0 0.00 0.35 0.07 52 1004.3
20260504190329 54 264 2.0 9.0 0.00 0.35 0.07 49 1004.3
20260504185849 54 287 2.0 8.0 0.00 0.35 0.07 50 1004.2
20260504185329 54 90 2.0 11.0 0.00 0.35 0.07 49 1004.2
20260504184829 54 218 4.0 10.0 0.00 0.35 0.07 48 1004.4
20260504184330 54 241 3.0 10.0 0.00 0.35 0.07 48 1004.3
20260504183831 55 287 3.0 12.0 0.00 0.35 0.07 48 1004.3
20260504183339 55 214 3.0 11.0 0.00 0.35 0.07 48 1004.4
20260504182827 55 215 3.0 12.0 0.00 0.35 0.07 48 1004.3
20260504182337 55 300 4.0 12.0 0.00 0.35 0.07 46 1004.3
20260504181824 56 294 5.0 13.0 0.00 0.35 0.07 48 1004.3
20260504181332 56 276 4.0 12.0 0.00 0.35 0.07 46 1004.2
20260504180831 56 346 4.0 10.0 0.00 0.35 0.07 48 1004.3
20260504180331 56 277 3.0 18.0 0.00 0.35 0.07 46 1004.2
20260504175850 57 272 6.0 13.0 0.00 0.35 0.07 46 1004.2
20260504175329 57 263 4.0 12.0 0.00 0.35 0.07 47 1004.2
20260504174829 57 306 4.0 12.0 0.00 0.35 0.07 47 1004.1
20260504174328 57 257 5.0 13.0 0.00 0.35 0.07 45 1004.1
20260504173829 57 203 4.0 13.0 0.00 0.35 0.07 44 1004.1
20260504173351 58 281 6.0 13.0 0.00 0.35 0.07 44 1004.1
20260504172828 58 276 5.0 12.0 0.00 0.35 0.07 44 1004.1
20260504172329 58 267 4.0 12.0 0.00 0.35 0.07 43 1004.0
20260504171830 58 303 4.0 14.0 0.00 0.35 0.07 44 1003.9
20260504171331 58 291 6.0 14.0 0.00 0.35 0.07 43 1003.9
20260504170833 58 274 7.0 14.0 0.00 0.35 0.07 42 1003.8
20260504170340 59 325 5.0 19.0 0.00 0.35 0.07 44 1003.9
20260504160356 59 298 7.0 16.0 0.00 0.35 0.07 53 1003.8
20260504150836 59 275 7.0 17.0 0.00 0.35 0.07 59 1003.8
20260504150324 60 275 4.0 17.0 0.00 0.35 0.07 60 1003.9
20260504141329 59 254 6.0 17.0 0.00 0.35 0.07 59 1003.9
20260504140829 59 278 4.0 16.0 0.00 0.35 0.07 60 1003.8
20260504140330 59 270 5.0 16.0 0.00 0.35 0.07 61 1003.8
20260504130326 58 304 9.0 18.0 0.00 0.35 0.07 68 1003.8
20260504110341 57 109 7.0 15.0 0.00 0.35 0.07 65 1003.6
20260504100403 57 284 10.0 16.0 0.00 0.35 0.07 68 1003.6
20260504081850 51 302 2.0 4.0 0.00 0.35 0.07 96 1003.7
20260504081330 51 284 2.0 5.0 0.00 0.39 0.07 95 1003.7
20260504080831 51 292 2.0 5.0 0.00 0.39 0.07 95 1003.8
20260504080340 50 286 2.0 4.0 0.00 0.39 0.07 96 1003.8
20260504070329 50 319 5.0 7.0 0.00 0.43 0.07 96 1003.9
20260504050356 46 300 0.0 1.0 0.08 0.91 0.06 95 1004.6
20260504045905 46 300 0.0 2.0 0.08 0.91 0.06 95 1004.7
20260504045332 46 299 1.0 2.0 0.16 0.91 0.06 95 1004.7
20260504044902 46 300 0.0 2.0 0.16 0.91 0.06 95 1004.7
20260504044327 46 299 0.0 0.0 0.16 0.91 0.06 95 1004.8
20260504043848 45 299 0.0 0.0 0.20 0.91 0.06 95 1004.8
20260504043327 45 300 0.0 0.0 0.20 0.91 0.06 95 1005.0
20260504042856 45 299 0.0 0.0 0.16 0.87 0.06 95 1005.0
20260504042343 45 300 0.0 0.0 0.20 0.87 0.06 95 1005.0
20260504041852 45 299 0.0 0.0 0.20 0.87 0.06 95 1005.0
20260504041340 45 299 0.0 0.0 0.16 0.87 0.05 95 1005.0
20260504040847 45 299 0.0 0.0 0.16 0.87 0.05 95 1005.1
20260504040326 45 299 0.0 2.0 0.16 0.87 0.05 95 1005.2
20260504035824 45 300 1.0 2.0 0.16 0.83 0.04 95 1005.2
20260504035330 45 300 1.0 2.0 0.12 0.79 0.03 94 1005.2
20260504034857 45 299 0.0 2.0 0.12 0.79 0.03 94 1005.1
20260504034324 45 300 1.0 2.0 0.16 0.79 0.03 94 1005.1
20260504033830 45 300 0.0 2.0 0.12 0.75 0.02 94 1005.1
20260504033351 45 300 1.0 2.0 0.12 0.75 0.02 94 1005.2
20260504032830 45 300 0.0 5.0 0.12 0.75 0.02 94 1005.2
20260504032331 45 156 2.0 5.0 0.08 0.71 0.02 94 1005.1
20260504031852 45 196 1.0 5.0 0.08 0.71 0.02 94 1005.2
20260504031330 45 190 2.0 6.0 0.08 0.71 0.02 94 1005.2
20260504030851 45 178 3.0 7.0 0.08 0.71 0.02 94 1005.2
20260504030351 45 161 3.0 7.0 0.08 0.71 0.02 93 1005.3
20260504025836 45 153 3.0 8.0 0.04 0.67 0.01 93 1005.4
20260504025324 45 184 3.0 8.0 0.04 0.67 0.01 93 1005.4
20260504024852 45 187 5.0 9.0 0.04 0.67 0.01 93 1005.4
20260504024351 45 190 3.0 6.0 0.00 0.63 0.00 93 1005.5
20260504023839 45 167 3.0 7.0 0.00 0.63 0.00 93 1005.6
20260504023328 45 161 3.0 6.0 0.00 0.63 0.00 92 1005.7
20260504022836 45 175 2.0 6.0 0.00 0.63 0.00 92 1005.7
20260504022324 45 157 2.0 8.0 0.00 0.63 0.00 92 1005.9
20260504021833 45 171 3.0 7.0 0.00 0.63 0.00 92 1006.0
20260504021400 46 155 3.0 6.0 0.00 0.71 0.00 92 1006.0
20260504020849 46 192 3.0 8.0 0.00 0.71 0.00 92 1006.1
20260504020337 46 163 3.0 8.0 0.00 0.71 0.00 92 1006.1
20260504015827 46 152 3.0 7.0 0.00 0.71 0.00 93 1006.1
20260504015335 46 175 3.0 6.0 0.00 0.71 0.00 93 1006.2
20260504014824 46 159 3.0 5.0 0.00 0.71 0.00 93 1006.2
20260504014352 46 183 2.0 5.0 0.00 0.71 0.00 93 1006.2
20260504013852 46 170 2.0 6.0 0.00 0.71 0.00 94 1006.3
20260504013400 46 172 2.0 6.0 0.00 0.71 0.00 94 1006.2
20260504012828 46 150 2.0 3.0 0.00 0.71 0.00 94 1006.2
20260504012328 46 155 1.0 3.0 0.00 0.71 0.00 94 1006.3
20260504011828 46 155 1.0 4.0 0.00 0.71 0.00 94 1006.3
20260504011329 45 153 2.0 4.0 0.00 0.79 0.00 94 1006.4
20260504010830 45 173 1.0 4.0 0.00 0.79 0.00 94 1006.4
20260504010331 45 173 2.0 4.0 0.00 0.79 0.00 95 1006.4
20260504005832 45 148 1.0 3.0 0.00 0.79 0.00 95 1006.5
20260504005332 45 148 0.0 0.0 0.00 0.79 0.00 95 1006.7
20260504004853 45 148 0.0 0.0 0.00 0.79 0.00 95 1006.8
20260504004349 45 148 0.0 0.0 0.00 0.79 0.00 95 1006.8
20260504003857 45 148 0.0 0.0 0.00 0.79 0.00 95 1006.9
20260504003324 45 148 0.0 0.0 0.00 0.79 0.00 95 1007.0
20260504002825 45 148 0.0 0.0 0.00 0.79 0.00 95 1007.1
20260504002327 45 148 0.0 3.0 0.00 0.79 0.00 95 1007.0
20260504001847 45 148 0.0 3.0 0.00 0.79 0.00 95 1007.1
20260504001327 45 148 1.0 2.0 0.00 0.83 0.00 95 1007.2
20260504000828 45 148 0.0 2.0 0.00 0.83 0.00 95 1007.3
20260504000335 45 148 0.0 3.0 0.00 0.83 0.00 95 1007.4
20260503235842 45 148 1.0 3.0 0.00 0.83 0.00 95 1007.4
20260503235331 45 148 1.0 3.0 0.00 0.83 0.00 95 1007.4
20260503234824 45 148 1.0 3.0 0.00 0.83 0.00 95 1007.5
20260503234349 45 148 2.0 3.0 0.00 0.83 0.00 95 1007.6
20260503233835 45 148 1.0 2.0 0.00 0.83 0.00 95 1007.7
20260503233324 45 148 1.0 2.0 0.00 0.83 0.00 94 1007.7
20260503232824 45 148 1.0 3.0 0.00 0.83 0.00 94 1007.7
20260503232345 45 148 1.0 3.0 0.00 0.83 0.00 94 1007.7
20260503231826 45 148 0.0 1.0 0.00 0.83 0.00 94 1007.9
20260503231348 45 148 0.0 2.0 0.00 0.87 0.00 94 1008.0
20260503230835 45 148 1.0 2.0 0.00 0.87 0.00 94 1008.0
20260503230324 45 148 1.0 2.0 0.00 0.87 0.00 94 1008.0
20260503225824 45 148 1.0 2.0 0.00 0.87 0.00 94 1008.0
20260503225325 45 148 1.0 2.0 0.00 0.87 0.00 94 1008.1
20260503224825 45 148 0.0 1.0 0.00 0.87 0.00 94 1008.2
20260503224326 45 148 0.0 2.0 0.00 0.87 0.00 95 1008.2
20260503223827 45 148 0.0 2.0 0.00 0.87 0.00 94 1008.2
20260503223327 45 148 0.0 2.0 0.00 0.87 0.00 94 1008.2
20260503222848 45 148 0.0 2.0 0.00 0.87 0.00 94 1008.3
20260503222327 45 148 1.0 2.0 0.00 0.87 0.00 94 1008.3
20260503221835 45 148 0.0 1.0 0.00 0.87 0.00 94 1008.4
20260503221324 45 148 0.0 1.0 0.00 0.87 0.17 94 1008.4
20260503220825 45 148 1.0 1.0 0.00 0.87 0.17 94 1008.4
20260503220332 45 148 0.0 2.0 0.00 0.87 0.17 94 1008.4
20260503215841 45 148 1.0 2.0 0.00 0.87 0.17 94 1008.5
20260503215348 45 148 0.0 0.0 0.00 0.87 0.17 94 1008.5
20260503214848 45 148 0.0 0.0 0.00 0.87 0.17 94 1008.6
20260503214328 45 148 0.0 0.0 0.00 0.87 0.17 94 1008.6
20260503213849 45 148 0.0 1.0 0.00 0.87 0.17 94 1008.7
20260503213329 45 148 0.0 2.0 0.00 0.87 0.17 94 1008.7
20260503212830 45 148 1.0 2.0 0.00 0.87 0.17 94 1008.7
20260503212329 45 148 0.0 1.0 0.00 0.87 0.17 94 1008.8
20260503211830 45 148 0.0 1.0 0.00 0.87 0.17 94 1008.8
20260503211330 45 148 0.0 1.0 0.00 0.87 0.17 94 1008.8
20260503210831 45 148 0.0 1.0 0.00 0.87 0.17 94 1008.8
20260503210352 45 148 0.0 1.0 0.00 0.87 0.17 94 1008.8
20260503205831 45 148 0.0 1.0 0.00 0.87 0.17 94 1008.8
20260503205332 45 148 0.0 2.0 0.00 0.87 0.17 94 1008.9
20260503204859 45 148 1.0 2.0 0.00 0.87 0.17 94 1008.9
20260503204325 45 148 1.0 2.0 0.00 0.87 0.17 94 1008.9
20260503203833 45 148 1.0 3.0 0.00 0.87 0.17 94 1009.0
20260503203340 45 148 1.0 3.0 0.00 0.87 0.17 94 1009.1
20260503202846 45 148 1.0 2.0 0.00 0.87 0.17 94 1009.2
20260503202334 45 148 0.0 0.0 0.00 0.87 0.17 94 1009.3
20260503201839 45 148 0.0 0.0 0.00 0.87 0.17 94 1009.3
20260503201326 45 148 0.0 1.0 0.00 0.87 0.17 94 1009.4
20260503200832 45 148 0.0 1.0 0.00 0.87 0.17 94 1009.4
20260503200331 45 148 0.0 1.0 0.00 0.87 0.17 94 1009.5
20260503195838 45 148 1.0 1.0 0.00 0.87 0.17 94 1009.4
20260503195346 45 148 0.0 2.0 0.00 0.87 0.17 94 1009.4
20260503194831 45 148 0.0 2.0 0.00 0.87 0.17 94 1009.5
20260503194330 45 148 1.0 2.0 0.00 0.87 0.17 94 1009.4
20260503193831 45 148 0.0 1.0 0.00 0.87 0.17 94 1009.5
20260503193330 45 148 0.0 2.0 0.00 0.87 0.17 94 1009.5
20260503192840 45 148 0.0 1.0 0.00 0.87 0.17 94 1009.4
20260503192328 45 148 1.0 1.0 0.00 0.87 0.17 94 1009.5
20260503191828 45 148 1.0 1.0 0.00 0.87 0.17 94 1009.5
20260503191350 45 148 0.0 2.0 0.00 0.87 0.17 94 1009.6